Location: Tel Aviv
(32.0670°N, 34.7670°E)
Time: 11:17:42
(UTC+03:00)

Transit 2A - Pass Details

Date: 23 January 2022
Orbit: 598 x 960 km, 66.7° (Epoch: 20 May)

Event Time Altitude Azimuth Distance (km) Brightness Sun altitude
Rises 21:27:41 0° 326° (NW) 3,518 - -55.1°
Reaches altitude 10° 21:30:25 10° 319° (NW) 2,526 - -55.7°
Maximum altitude 21:35:49 40° 252° (WSW) 1,182 - -56.8°
Drops below altitude 10° 21:40:43 10° 183° (S) 2,285 - -57.8°
Sets 21:43:05 0° 176° (S) 3,147 - -58.3°
